Weather History for KFAY - March, 2013

Change the Weather History Date:

Sunday, March 31, 2013

  Actual Average Record
Temperature  
Mean Temperature 61 °F 59 °F  
Max Temperature 73 °F 71 °F 90 °F (1910)
Min Temperature 49 °F 47 °F 23 °F (1964)
Degree Days  
Heating Degree Days 4 7  
Month to date heating degree days 506 343  
Since 1 July heating degree days 2602 2569  
Cooling Degree Days 0 1  
Month to date cooling degree days 3 12  
Year to date cooling degree days 8 16  
Growing Degree Days 10 (Base 50)    
Moisture  
Dew Point 50 °F    
Average Humidity 75    
Maximum Humidity 100    
Minimum Humidity 49    
Precipitation  
Precipitation 0.17 in 0.13 in 2.28 in (2002)
Month to date precipitation 1.67 3.55  
Year to date precipitation 7.31 9.61  
Sea Level Pressure  
Sea Level Pressure 29.92 in    
Wind  
Wind Speed 10 mph (SSW)    
Max Wind Speed 24 mph    
Max Gust Speed 30 mph    
Visibility 9 miles    
Events Rain    
T = Trace of Precipitation, MM = Missing Value Source: NWS Daily Summary

Daily Weather History Graph

Daily Weather History Graph

Search for Another Location

Airport or City:

Trip Planner

Search our weather history database for the weather conditions in past years. The results will help you decide how hot, cold, wet, or windy it might be!

Date:

Astronomy

Mar. 31, 2013 Rise Set
Actual Time 7:03 AM EDT 7:36 PM EDT
Civil Twilight 6:37 AM EDT 8:01 PM EDT
Nautical Twilight 6:08 AM EDT 8:31 PM EDT
Astronomical Twilight 5:37 AM EDT 9:02 PM EDT
Moon No Moon Rise 9:59 AM EDT (3/31)
Length of Visible Light 13h 23m
Length of Day
12h 32m
Waning Gibbous, 78% of the Moon is Illuminated
Mar 31
Waning Gibbous
Apr 3
Last Quarter
Apr 10
New
Apr 18
First Quarter
Apr 25
Full

Hourly Weather History & Observations

Time (EDT) Temp. Dew Point Humidity Pressure Visibility Wind Dir Wind Speed Gust Speed Precip Events Conditions
12:53 AM 51.1 °F 45.0 °F 80% 30.09 in 10.0 mi SSE 6.9 mph - N/A   Clear
1:53 AM 50.0 °F 43.0 °F 77% 30.07 in 10.0 mi SE 5.8 mph - N/A   Clear
2:53 AM 50.0 °F 41.0 °F 71% 30.04 in 10.0 mi SE 5.8 mph - N/A   Scattered Clouds
3:53 AM 50.0 °F 42.1 °F 74% 30.01 in 10.0 mi SE 3.5 mph - N/A   Mostly Cloudy
4:53 AM 51.1 °F 42.1 °F 71% 30.00 in 10.0 mi SSE 9.2 mph - N/A   Overcast
5:53 AM 50.0 °F 45.0 °F 83% 30.00 in 8.0 mi South 6.9 mph - 0.00 in Rain Light Rain
6:53 AM 48.9 °F 48.0 °F 97% 29.99 in 4.0 mi Calm Calm - 0.07 in Rain Light Rain
7:53 AM 50.0 °F 48.0 °F 93% 29.98 in 3.0 mi SE 3.5 mph - 0.06 in Rain Light Rain
8:53 AM 51.1 °F 50.0 °F 96% 29.96 in 5.0 mi SSE 8.1 mph - 0.03 in   Overcast
9:53 AM 55.0 °F 53.1 °F 93% 29.96 in 6.0 mi South 8.1 mph - N/A   Overcast
10:53 AM 63.0 °F 55.0 °F 75% 29.94 in 10.0 mi SSW 17.3 mph 23.0 mph N/A   Mostly Cloudy
11:53 AM 66.0 °F 52.0 °F 60% 29.92 in 10.0 mi SW 18.4 mph 27.6 mph N/A   Overcast
12:53 PM 69.1 °F 53.1 °F 57% 29.89 in 10.0 mi SW 16.1 mph - N/A   Mostly Cloudy
1:53 PM 68.0 °F 53.1 °F 59% 29.86 in 10.0 mi SW 15.0 mph 26.5 mph N/A   Overcast
2:53 PM 70.0 °F 53.1 °F 55% 29.85 in 10.0 mi SW 20.7 mph 29.9 mph N/A   Overcast
3:53 PM 72.0 °F 52.0 °F 49% 29.83 in 10.0 mi WSW 18.4 mph 26.5 mph N/A   Mostly Cloudy
4:53 PM 72.0 °F 52.0 °F 49% 29.82 in 10.0 mi WSW 12.7 mph 20.7 mph N/A   Mostly Cloudy
5:53 PM 71.1 °F 52.0 °F 51% 29.81 in 8.0 mi SW 12.7 mph - 0.00 in Rain Light Rain
6:53 PM 69.1 °F 54.0 °F 58% 29.81 in 10.0 mi SSW 8.1 mph - 0.01 in   Clear
7:53 PM 68.0 °F 53.1 °F 59% 29.81 in 10.0 mi SSW 6.9 mph - N/A   Overcast
8:53 PM 66.9 °F 53.1 °F 61% 29.82 in 10.0 mi SW 9.2 mph - 0.00 in   Overcast
9:53 PM 66.0 °F 55.0 °F 68% 29.84 in 10.0 mi SSW 12.7 mph - N/A   Overcast
10:53 PM 63.0 °F 55.0 °F 75% 29.84 in 10.0 mi SSW 10.4 mph - N/A   Clear
11:53 PM 60.1 °F 55.0 °F 83% 29.86 in 10.0 mi SW 4.6 mph - N/A   Clear